CINOVEC Weather Reports


time (UTC)temp
C
wind
direction
speed
KPH
gust
KPH
rain 1hr
cm
rain 24hr
cm
rain mn
cm
humidity
%
barometer
mb
20260507151728 7 340 16.1 0.0 0.00 0.00 0.00 99
20260507141729 7 330 19.3 0.0 0.00 0.00 0.00 99
20260507131829 7 20 9.7 0.0 0.00 0.00 0.00 99
20260507121729 7 10 9.7 0.0 0.00 0.00 0.00 99
20260507111729 7 340 9.7 0.0 0.00 0.00 0.00 99
20260507101928 7 320 8.0 0.0 0.00 0.00 0.00 99
20260507091729 7 20 8.0 0.0 0.00 0.00 0.00 99
20260507081729 7 30 4.8 0.0 0.00 0.00 0.00 99
20260507071728 7 350 4.8 0.0 0.00 0.00 0.00 99
20260507061728 7 10 8.0 0.0 0.00 0.00 0.00 99
20260507051728 7 350 3.2 0.0 0.00 0.00 0.00 99
20260507041930 7 30 3.2 0.0 0.00 0.00 0.00 99
20260507031728 7 290 4.8 0.0 0.00 0.00 0.00 99
20260507021727 7 100 4.8 0.0 0.00 0.00 0.00 99
20260507011827 7 350 9.7 0.0 0.00 0.00 0.00 99
20260507001729 7 10 9.7 0.0 0.00 0.00 0.00 99
20260506231728 8 320 9.7 0.0 0.00 0.00 0.00 99
20260506221929 10 20 4.8 0.0 0.00 0.00 0.00 99
20260506211728 10 10 11.3 0.0 0.00 0.00 0.00 99
20260506201729 10 10 12.9 0.0 0.00 0.00 0.00 99
20260506191801 11 10 9.7 0.0 0.00 0.00 0.00 93
20260506181801 12 20 4.8 0.0 0.00 0.00 0.00 87
20260506171728 13 0 0.0 0.0 0.00 0.00 0.00 76
20260506161928 13 160 14.5 0.0 0.00 0.00 0.00 67